Weather in Puerto Varas

Chile     41°19′12″S   72°59′05″W
temp.,
°C
wind,
m/s
gust,
m/s
humid.,
%
clouds,
%
prec.,
mm/h
press.,
hPa
HPBL,
m
22 october, fri
fri2200:00+5sw229611 0.0 102351
03:00+4sw119788 0.0 102350
06:00+3sw239842 0.0 102495
09:00+7sw269150 0.0 1025434
12:00+9s368960 0.8 1024933
15:00+12s345179 0.9 10221544
18:00+12ssw3554100 0.0 10211389
21:00+8wsw3870100 0.0 1022639
23 october, sat
sat2300:00+7wsw3873100 0.0 1022648
03:00+6sw1482100 0.2 1022271
06:00+6nne2495100 0.6 1021221
09:00+6nne3794100 1.3 1024393
12:00+7nne4795100 0.8 1024536
15:00+11ne3573100 0.8 1023909
18:00+11ene138274 0.4 1022284
21:00+7sw23905 0.6 102377
24 october, sun
sun2400:00+7sw0094100 0.0 102337
03:00+7nne3695100 0.1 1021262
06:00+8nne3997100 0.9 1020393
09:00+8n2695100 1.4 1020301
12:00+13n1676100 0.1 1019728
15:00+14wnw187794 0.2 1018841
18:00+16wnw3665100 0.0 10171121
21:00+11n398998 0.1 1018335
25 october, mon
mon2500:00+11n399498 0.1 1018346
03:00+11n4986100 0.5 1016614
06:00+12n3883100 0.4 1017658
09:00+11n2687100 0.9 1018482
12:00+13nnw2585100 0.1 1018622
15:00+13nnw278197 0.2 1018649
18:00+14nnw267882 0.1 1018619
21:00+11n2883100 0.1 1018230
26 october, tue
tue2600:00+8n279721 0.0 1018171
03:00+7n379957 0.0 1018225
06:00+7nne379737 0.0 1018265
09:00+9nne378948 0.0 1019352
12:00+14n2365100 0.0 10191088
15:00+17se1160100 0.0 1018265
18:00+17s336492 0.0 1019599
21:00+12s378514 0.0 1020246